When you browse on this site, cookies collect data to enhance your experience and personalize the content and advertising you see.
Visit our Privacy Policy to learn more. By continuing to use the site, you agree to this use of cookies and data.
  • In Romania
  • List of Countries
  • For 7 days
  • Water Temperature
  • Satellite Maps
  • Weather Map
  • Weather Widgets
  • user-avatar
    Login

    Hourly Weather New York

    Today, 20 May, Monday

    Time Temperature Precipitation Wind Pressure Humidity
    00:00 +23°C° 1.3 mm 4 mps 759 mmHg 80%
    01:00 +23°C° 0 mm 1 mps 758 mmHg 79%
    02:00 +23°C° 0.3 mm 2 mps 758 mmHg 79%
    03:00 +22°C° 0.3 mm 3 mps 758 mmHg 78%
    04:00 +21°C° 0.3 mm 4 mps 758 mmHg 78%
    05:00 +22°C° 0 mm 5 mps 758 mmHg 73%
    06:00 +25°C° 0 mm 5 mps 758 mmHg 67%
    07:00 +25°C° 0 mm 4 mps 757 mmHg 66%
    08:00 +27°C° 0 mm 5 mps 757 mmHg 59%
    09:00 +29°C° 0 mm 5 mps 757 mmHg 51%
    10:00 +32°C° 0 mm 6 mps 757 mmHg 43%
    11:00 +33°C° 0 mm 6 mps 756 mmHg 40%
    12:00 +34°C° 0 mm 6 mps 756 mmHg 36%
    13:00 +34°C° 0 mm 7 mps 755 mmHg 33%
    14:00 +34°C° 0 mm 7 mps 755 mmHg 35%
    15:00 +34°C° 0 mm 7 mps 755 mmHg 36%
    16:00 +33°C° 0 mm 8 mps 755 mmHg 38%
    17:00 +32°C° 0 mm 7 mps 755 mmHg 40%
    18:00 +32°C° 0 mm 6 mps 755 mmHg 41%
    19:00 +30°C° 0 mm 5 mps 755 mmHg 43%
    20:00 +27°C° 0 mm 5 mps 756 mmHg 48%
    21:00 +24°C° 0 mm 6 mps 756 mmHg 54%
    22:00 +21°C° 0 mm 6 mps 757 mmHg 60%
    23:00 +20°C° 0 mm 6 mps 757 mmHg 58%

    Tomorrow, 21 May, Tuesday

    Time Temperature Precipitation Wind Pressure Humidity
    00:00 +19°C° 0 mm 6 mps 757 mmHg 56%
    01:00 +17°C° 0 mm 5 mps 758 mmHg 53%
    02:00 +16°C° 0 mm 6 mps 758 mmHg 54%
    03:00 +15°C° 0 mm 6 mps 758 mmHg 54%
    04:00 +14°C° 0 mm 6 mps 758 mmHg 54%
    05:00 +14°C° 0 mm 6 mps 758 mmHg 53%
    06:00 +14°C° 0 mm 6 mps 759 mmHg 51%
    07:00 +15°C° 0 mm 6 mps 759 mmHg 49%
    08:00 +16°C° 0 mm 6 mps 759 mmHg 44%
    09:00 +17°C° 0 mm 6 mps 759 mmHg 39%
    10:00 +19°C° 0 mm 6 mps 759 mmHg 34%
    11:00 +21°C° 0 mm 6 mps 759 mmHg 32%
    12:00 +22°C° 0 mm 6 mps 759 mmHg 29%
    13:00 +23°C° 0 mm 6 mps 759 mmHg 26%
    14:00 +23°C° 0 mm 7 mps 759 mmHg 25%
    15:00 +24°C° 0 mm 7 mps 759 mmHg 24%
    16:00 +24°C° 0 mm 7 mps 759 mmHg 23%
    17:00 +22°C° 0 mm 7 mps 760 mmHg 28%
    18:00 +21°C° 0 mm 7 mps 761 mmHg 32%
    19:00 +20°C° 0 mm 7 mps 761 mmHg 36%
    20:00 +19°C° 0 mm 6 mps 762 mmHg 38%
    21:00 +19°C° 0 mm 6 mps 763 mmHg 40%
    22:00 +17°C° 0 mm 5 mps 763 mmHg 42%
    23:00 +16°C° 0 mm 5 mps 764 mmHg 44%

    Day after tomorrow, 22 May, Wednesday

    Time Temperature Precipitation Wind Pressure Humidity
    00:00 +17°C° 0 mm 4 mps 764 mmHg 47%
    01:00 +17°C° 0 mm 4 mps 764 mmHg 49%
    02:00 +15°C° 0 mm 4 mps 764 mmHg 51%
    03:00 +15°C° 0 mm 4 mps 764 mmHg 53%
    04:00 +14°C° 0 mm 4 mps 765 mmHg 55%
    05:00 +15°C° 0 mm 4 mps 765 mmHg 50%
    06:00 +17°C° 0 mm 4 mps 765 mmHg 45%
    07:00 +18°C° 0 mm 4 mps 766 mmHg 41%
    08:00 +19°C° 0 mm 4 mps 766 mmHg 36%
    09:00 +20°C° 0 mm 4 mps 766 mmHg 32%
    10:00 +22°C° 0 mm 4 mps 767 mmHg 27%
    11:00 +23°C° 0 mm 4 mps 766 mmHg 25%
    12:00 +25°C° 0 mm 3 mps 766 mmHg 23%
    13:00 +27°C° 0 mm 3 mps 766 mmHg 21%
    14:00 +27°C° 0 mm 3 mps 766 mmHg 21%
    15:00 +27°C° 0 mm 2 mps 766 mmHg 21%
    16:00 +27°C° 0 mm 2 mps 765 mmHg 21%
    17:00 +27°C° 0 mm 2 mps 766 mmHg 23%
    18:00 +26°C° 0 mm 2 mps 766 mmHg 26%
    19:00 +25°C° 0 mm 2 mps 766 mmHg 28%
    20:00 +24°C° 0 mm 2 mps 766 mmHg 32%
    21:00 +23°C° 0 mm 2 mps 767 mmHg 35%
    22:00 +21°C° 0 mm 2 mps 767 mmHg 38%
    23:00 +21°C° 0 mm 2 mps 767 mmHg 40%

    23 May, Thursday

    Time Temperature Precipitation Wind Pressure Humidity
    00:00 +21°C° 0 mm 1 mps 767 mmHg 42%
    01:00 +21°C° 0 mm 1 mps 767 mmHg 44%
    02:00 +21°C° 0 mm 1 mps 767 mmHg 45%
    03:00 +20°C° 0 mm 1 mps 767 mmHg 46%
    04:00 +19°C° 0 mm 2 mps 767 mmHg 47%
    05:00 +19°C° 0 mm 2 mps 767 mmHg 50%
    06:00 +19°C° 0 mm 2 mps 767 mmHg 52%
    07:00 +19°C° 0 mm 2 mps 767 mmHg 55%
    08:00 +19°C° 0 mm 3 mps 767 mmHg 54%
    09:00 +19°C° 0 mm 3 mps 766 mmHg 53%
    10:00 +19°C° 0 mm 4 mps 766 mmHg 52%
    11:00 +21°C° 0 mm 4 mps 766 mmHg 51%
    12:00 +22°C° 0 mm 4 mps 765 mmHg 49%
    13:00 +23°C° 0 mm 4 mps 765 mmHg 47%
    14:00 +25°C° 0 mm 4 mps 764 mmHg 49%
    15:00 +25°C° 0 mm 5 mps 763 mmHg 50%
    16:00 +25°C° 0 mm 5 mps 762 mmHg 52%
    17:00 +23°C° 0.1 mm 5 mps 761 mmHg 57%
    18:00 +23°C° 0.1 mm 4 mps 761 mmHg 61%
    19:00 +22°C° 0.1 mm 4 mps 760 mmHg 66%
    20:00 +22°C° 0.8 mm 4 mps 760 mmHg 70%
    21:00 +22°C° 0.8 mm 4 mps 759 mmHg 74%
    22:00 +22°C° 0.8 mm 4 mps 758 mmHg 78%
    23:00 +22°C° 0.6 mm 4 mps 758 mmHg 80%

    24 May, Friday

    Time Temperature Precipitation Wind Pressure Humidity
    00:00 +22°C° 0.6 mm 4 mps 757 mmHg 82%
    01:00 +21°C° 0.6 mm 4 mps 756 mmHg 83%
    02:00 +21°C° 0 mm 4 mps 756 mmHg 80%
    03:00 +21°C° 0 mm 5 mps 756 mmHg 77%
    04:00 +20°C° 0 mm 5 mps 756 mmHg 73%
    05:00 +20°C° 0 mm 6 mps 757 mmHg 70%
    06:00 +20°C° 0 mm 6 mps 757 mmHg 66%
    07:00 +20°C° 0 mm 7 mps 758 mmHg 62%
    08:00 +21°C° 0 mm 7 mps 759 mmHg 58%
    09:00 +22°C° 0 mm 7 mps 759 mmHg 53%
    10:00 +23°C° 0 mm 7 mps 759 mmHg 49%
    11:00 +26°C° 0 mm 7 mps 760 mmHg 45%
    12:00 +27°C° 0 mm 6 mps 760 mmHg 42%
    13:00 +28°C° 0 mm 6 mps 760 mmHg 38%
    14:00 +27°C° 0 mm 6 mps 761 mmHg 40%
    15:00 +27°C° 0 mm 6 mps 761 mmHg 42%
    16:00 +26°C° 0 mm 6 mps 762 mmHg 44%
    17:00 +25°C° 0 mm 5 mps 763 mmHg 45%
    18:00 +23°C° 0 mm 5 mps 763 mmHg 47%
    19:00 +22°C° 0 mm 5 mps 764 mmHg 48%
    20:00 +20°C° 0 mm 4 mps 764 mmHg 50%
    21:00 +19°C° 0 mm 4 mps 765 mmHg 53%
    22:00 +18°C° 0 mm 4 mps 766 mmHg 56%
    23:00 +17°C° 0 mm 4 mps 766 mmHg 57%

    25 May, Saturday

    Time Temperature Precipitation Wind Pressure Humidity
    00:00 +15°C° 0 mm 4 mps 766 mmHg 58%
    01:00 +14°C° 0 mm 4 mps 766 mmHg 59%
    02:00 +14°C° 0 mm 3 mps 766 mmHg 59%
    03:00 +15°C° 0 mm 2 mps 766 mmHg 59%
    04:00 +14°C° 0 mm 2 mps 766 mmHg 59%
    05:00 +15°C° 0 mm 2 mps 766 mmHg 58%
    06:00 +15°C° 0 mm 2 mps 766 mmHg 56%
    07:00 +16°C° 0 mm 2 mps 766 mmHg 54%
    08:00 +17°C° 0 mm 3 mps 766 mmHg 50%
    09:00 +18°C° 0 mm 3 mps 766 mmHg 46%
    10:00 +20°C° 0 mm 3 mps 765 mmHg 42%
    11:00 +20°C° 0 mm 4 mps 765 mmHg 41%
    12:00 +21°C° 0 mm 4 mps 764 mmHg 41%
    13:00 +21°C° 0 mm 5 mps 764 mmHg 40%
    14:00 +21°C° 0 mm 5 mps 763 mmHg 43%
    15:00 +20°C° 0 mm 5 mps 763 mmHg 45%
    16:00 +20°C° 0 mm 5 mps 762 mmHg 48%
    17:00 +19°C° 0 mm 5 mps 762 mmHg 52%
    18:00 +19°C° 0 mm 5 mps 762 mmHg 55%
    19:00 +17°C° 0 mm 5 mps 762 mmHg 59%
    20:00 +17°C° 0.6 mm 5 mps 762 mmHg 64%
    21:00 +18°C° 0.6 mm 4 mps 762 mmHg 69%
    22:00 +17°C° 0.6 mm 4 mps 762 mmHg 75%
    23:00 +17°C° 0.6 mm 4 mps 761 mmHg 77%
    Show more